{"data":{"norad_id":57614,"intl_designator":"2023-119N","name":"STARLINK-30244","alt_names":[],"object_type":"PAYLOAD","status":"ACTIVE","operator":null,"country":"US","launch_date":"2023-08-11","launch_site_code":"AFETR","launch_vehicle":null,"mission":null,"orbit_class":"UNKNOWN","rcs_meters":null,"size_class":null,"mass_kg":null,"dimensions":null,"purposes":["comms"],"wikipedia_slug":null,"has_3d_model":false,"image_url":null,"decayed_at":null,"tle_current":{"epoch":"2026-09-20T17:02:20.607072Z","epoch_age_seconds":109896,"freshness":"FRESH","line1":"1 57614U 23119N   26263.70996073  .00000737  00000+0  36327-4 0  9990","line2":"2 57614  43.0039  60.0761 0001854 259.1400 100.9243 15.27579934172914","mean_motion":15.27579934,"eccentricity":0.0001854,"inclination_deg":43.0039,"raan_deg":60.0761,"arg_perigee_deg":259.14,"mean_anomaly_deg":100.9243,"bstar":3.6327e-5,"rev_number":17291,"period_min":94.266752786503,"perigee_km":481.77722972856,"apogee_km":484.32135760625,"semimajor_km":6861.1862936674,"source":"CELESTRAK","updated_at":"2026-09-21T09:00:33.642416Z"}}}